Tracking 30402 objects as of 12-May-2025
HD Live streaming from Space Station
objects crossing your sky now

ATLAS 5 CENTAUR DEB

Track ATLAS 5 CENTAUR DEB now!


NORAD ID: 46668
Int'l Code: 2018-079CW
Perigee: 8,681.0 km
Apogee: 34,902.6 km
Inclination: 12.8 °
Period: 783.9 minutes
Semi major axis: 28162 km
RCS: Unknown
Launch date: October 17, 2018
Source: United States (US)
Launch site: AIR FORCE EASTERN TEST RANGE (AFETR)

Note: This is SATELLITE DEBRIS
Your satellite tracking list
Your tracking list is empty




NASA's NSSDC Master Catalog

Two Line Element Set (TLE):
1 46668U 18079CW  25130.94838935 -.00000074  00000-0  00000+0 0  9996
2 46668  12.8090  68.3711 4655368 252.7097  52.6259  1.83691453 30784
Source of the keplerian elements: AFSPC